Location: Newark
(15.4608°S, 41.1635°W)
Time: 22:30:55
(UTC+00:00)

Transit 4A - Pass Details

Date: 05 March 2021
Orbit: 869 x 975 km, 66.8° (Epoch: 16 April)

Event Time Altitude Azimuth Distance (km) Brightness Sun altitude
Rises 22:26:38 0° 8° (N) 3,444 10.7 -20.1°
Enters shadow 22:27:30 - 11° (NNE) 3,158 10.4 -20.3°
Reaches altitude 10° 22:29:36 10° 22° (NNE) 2,506 - -20.8°
Maximum altitude 22:34:03 23° 73° (ENE) 1,761 - -21.8°
Drops below altitude 10° 22:38:31 10° 124° (ESE) 2,525 - -22.9°
Sets 22:41:30 0° 138° (SE) 3,476 - -23.6°
